SL-4 R/B, 61731

Orbit data source: Space-Track

SL-4 R/B, 61731 is space debris in LEO originally from a launch on Thu, 31 Oct 2024 UTC launched from the Plesetsk Missile And Space Complex (PKMTR). Debris objects in space refer to the collection of defunct objects orbiting the Earth. Examples of debris include non-operational satellites, rocket bodies, and fragments generated from explosions, collisions, or faulty payload assembly.

Loading next visibility...
SL-4 R/B details
Identifier
61731, 2024-197B
Orbit
LEO
Last TLE update20 hours ago
Origin
Flag of CISRVSN RF (CIS)
ManufacturerTsSKB-Progress
MissionSpacecraft
Bus & MotorBLOK-I, Unknown motor
Mass~0 kg wet, 2,350 kg dry
Launch date (UTC)
2024-10-31 (1 month ago)
Launch vehicleUnknown
Launch site
Plesetsk Missile And Space Complex (PKMTR)
Object type
Payload
Rocket body
Debris
Shape & HBRUnknown
Radar Cross SectionLarge (>1 m²)

Expand to show TLE details & history

TLE from 20 hours ago
0 SL-4 R/B
1 61731U 24197B   24348.11982168  .00076799  00000-0  80018-3 0  9996
2 61731  97.5620 258.8342 0094074 271.4900  87.5581 15.58826587  6643
Epoch: 2024-12-13T02:52Z
Definitive object data (Epoch: 2024-12-13T02:52:32.593Z)
Latitude
Longitude133.40803°
Altitude392.075 km
Speed7.676 km/s
True Right ascension17h 15m 20s
True Declination0° 00' 00"
Sunlit
Object was in daylight at TLE epoch
Visualization TLE readout
Latitude8.7868°
Longitude133.12764°
Altitude404.142 km
Speed7.663 km/s
Apparent Right ascension14h 17m 42s
Apparent Declination-25° 46' 12"
Sunlit
Object is in daylight
Visualization observer readout
Local Sidereal Time21:28:26
Azimuth259.571° W
Elevation-29.261°
Doppler factor1
Orbital elements
Apogee altitude451.624 km
Perigee altitude324.321 km
Semi-major axis6,766.11 km
Eccentricity0.0094074
Inclination97.562°
RAAN258.8342°
Arg. of periapsis271.49°
True anomaly88.63561°
Mean anomaly87.5581°
Eccentric anomaly88.09681°
Mean motion3.89973 °/min
BSTAR0.00080018
Orbital period92.31 mins
Loading maneuver chart data...
Loading historical data...
Loading historical data...
Loading historical data...
Loading historical data...
Loading historical data...
Loading historical data...
Loading historical data...
Other satellites on launch #197 in the year 2024 (2024-10-31 UTC)

SL-4 R/B Visibility forecast

Observer location: undefined°, undefined

Span
Click to sort rows by Start time (UTC) header in descending order
Start Az.
Max El. time (UTC)
Max El. Az.
Max El.
End time (UTC)
End Az.
6 mins2024-12-14 07:09:27.247Z11.97° NNE2024-12-14 07:12:27.247Z9.932° NNE44.359°2024-12-14 07:15:27.247Z193.29° SSW
|